Regional Weather Roundup
Issued by NWS

Home | Current Version | Previous Version | Graphics & Text | Print | Product List | Glossary On
Versions: 1 2 3 4 5 6 7 8 9 10 11 12 13 14 15 16 17 18 19 20 21 22 23 24 25 26 27 28 29 30 31 32 33 34 35 36 37 38 39 40 41 42 43 44 45 46 47 48 49 50
000
ASUS44 KMEG 190600
RWRTN
TENNESSEE HOURLY STATE WEATHER ROUNDUP
NATIONAL WEATHER SERVICE MEMPHIS TN
1200 AM CST FRI JAN 19 2018

TNZ002-004-019-021-049-052-054-088>092-190700-
WEST TENNESSEE

CITY           SKY/WX    TMP DP  RH WIND       PRES   REMARKS
MEMPHIS INTL   FAIR      27  17  66 SW9G18    30.35F WCI  18
NWS MEMPHIS      N/A     26 N/A N/A MISG        N/A
JACKSON        FAIR      24  13  62 S8        30.34F WCI  15
DYERSBURG      FAIR      25  15  66 S5        30.33F WCI  19
$$

TNZ008-025-027-028-033-062-065-066-190700-
NORTH MIDDLE TENNESSEE

CITY           SKY/WX    TMP DP  RH WIND       PRES   REMARKS
NASHVILLE      FAIR      23  14  68 S3        30.34F
CLARKSVILLE    FAIR      17   8  67 S3        30.31F
SMYRNA         FAIR      17  13  84 SE3       30.35F
CROSSVILLE     FAIR      16  10  77 CALM      30.28F
$$

TNZ061-075-076-078-094-096-097-190700-
SOUTH MIDDLE TENNESSEE

CITY           SKY/WX    TMP DP  RH WIND       PRES   REMARKS
WINCHESTER     CLEAR     18  14  86 CALM      30.34F
$$

TNZ017-018-042-046-047-190700-
NORTHEAST TENNESSEE

CITY           SKY/WX    TMP DP  RH WIND       PRES   REMARKS
TRI CITIES     FAIR      15  11  83 CALM      30.31F
$$

TNZ012-013-036-069-073-074-190700-
CENTRAL EAST TENNESSEE

CITY           SKY/WX    TMP DP  RH WIND       PRES   REMARKS
KNOXVILLE      FAIR      21  14  74 CALM      30.33S
OAK RIDGE      FAIR      18  15  88 CALM      30.35F
$$

TNZ083-085-099-190700-
SOUTHEAST TENNESSEE

CITY           SKY/WX    TMP DP  RH WIND       PRES   REMARKS
CHATTANOOGA    FAIR      20  16  84 CALM      30.36S
$$

SKY/WX REPORTED AS FAIR MEANS FEW OR NO CLOUDS BELOW
12 THOUSAND FEET.




USA.gov is the U.S. government's official web portal to all federal, state and local government web resources and services.